Year,Month,Day,Hour,Minute,Value (Times are PST for temperature in C)
2017,05,26,00,00,13.70
2017,05,26,00,01,13.70
2017,05,26,00,02,13.70
2017,05,26,00,03,13.70
2017,05,26,00,04,13.70
2017,05,26,00,05,13.70
2017,05,26,00,06,13.70
2017,05,26,00,07,13.70
2017,05,26,00,08,13.70
2017,05,26,00,09,13.70
2017,05,26,00,10,13.70
2017,05,26,00,11,13.80
2017,05,26,00,12,13.80
2017,05,26,00,13,13.80
2017,05,26,00,14,13.80
2017,05,26,00,15,13.80
2017,05,26,00,16,13.80
2017,05,26,00,17,13.80
2017,05,26,00,18,13.80
2017,05,26,00,19,13.80
2017,05,26,00,20,13.70
2017,05,26,00,21,13.70
2017,05,26,00,22,13.70
2017,05,26,00,23,13.70
2017,05,26,00,24,13.60
2017,05,26,00,25,13.60
2017,05,26,00,26,13.60
2017,05,26,00,27,13.60
2017,05,26,00,28,13.50
2017,05,26,00,29,13.50
2017,05,26,00,30,13.50
2017,05,26,00,31,13.50
2017,05,26,00,32,13.50
2017,05,26,00,33,13.40
2017,05,26,00,34,13.40
2017,05,26,00,35,13.40
2017,05,26,00,36,13.40
2017,05,26,00,37,13.40
2017,05,26,00,38,13.40
2017,05,26,00,39,13.30
2017,05,26,00,40,13.30
2017,05,26,00,41,13.30
2017,05,26,00,42,13.30
2017,05,26,00,43,13.30
2017,05,26,00,44,13.30
2017,05,26,00,45,13.30
2017,05,26,00,46,13.30
2017,05,26,00,47,13.30
2017,05,26,00,48,13.20
2017,05,26,00,49,13.20
2017,05,26,00,50,13.20
2017,05,26,00,51,13.20
2017,05,26,00,52,13.20
2017,05,26,00,53,13.10
2017,05,26,00,54,13.10
2017,05,26,00,55,13.10
2017,05,26,00,56,13.10
2017,05,26,00,57,13.10
2017,05,26,00,58,13.10
2017,05,26,00,59,13.20
2017,05,26,01,00,13.20
2017,05,26,01,01,13.20
2017,05,26,01,02,13.20
2017,05,26,01,03,13.30
2017,05,26,01,04,13.30
2017,05,26,01,05,13.30
2017,05,26,01,06,13.30
2017,05,26,01,07,13.30
2017,05,26,01,08,13.30
2017,05,26,01,09,13.30
2017,05,26,01,10,13.30
2017,05,26,01,11,13.30
2017,05,26,01,12,13.20
2017,05,26,01,13,13.20
2017,05,26,01,14,13.10
2017,05,26,01,15,13.10
2017,05,26,01,16,13.00
2017,05,26,01,17,12.90
2017,05,26,01,18,12.90
2017,05,26,01,19,12.90
2017,05,26,01,20,12.80
2017,05,26,01,21,12.80
2017,05,26,01,22,12.80
2017,05,26,01,23,12.80
2017,05,26,01,24,12.80
2017,05,26,01,25,12.80
2017,05,26,01,26,12.90
2017,05,26,01,27,12.90
2017,05,26,01,28,12.80
2017,05,26,01,29,12.80
2017,05,26,01,30,12.80
2017,05,26,01,31,12.80
2017,05,26,01,32,12.80
2017,05,26,01,33,12.80
2017,05,26,01,34,12.80
2017,05,26,01,35,12.80
2017,05,26,01,36,12.80
2017,05,26,01,37,12.70
2017,05,26,01,38,12.70
2017,05,26,01,39,12.70
2017,05,26,01,40,12.70
2017,05,26,01,41,12.70
2017,05,26,01,42,12.70
2017,05,26,01,43,12.70
2017,05,26,01,44,12.70
2017,05,26,01,45,12.70
2017,05,26,01,46,12.70
2017,05,26,01,47,12.70
2017,05,26,01,48,12.70
2017,05,26,01,49,12.70
2017,05,26,01,50,12.70
2017,05,26,01,51,12.70
2017,05,26,01,52,12.70
2017,05,26,01,53,12.70
2017,05,26,01,54,12.70
2017,05,26,01,55,12.70
2017,05,26,01,56,12.70
2017,05,26,01,57,12.70
2017,05,26,01,58,12.70
2017,05,26,01,59,12.70
2017,05,26,02,00,12.60
2017,05,26,02,01,12.60
2017,05,26,02,02,12.60
2017,05,26,02,03,12.50
2017,05,26,02,04,12.50
2017,05,26,02,05,12.50
2017,05,26,02,06,12.50
2017,05,26,02,07,12.50
2017,05,26,02,08,12.50
2017,05,26,02,09,12.60
2017,05,26,02,10,12.60
2017,05,26,02,11,12.60
2017,05,26,02,12,12.50
2017,05,26,02,13,12.50
2017,05,26,02,14,12.40
2017,05,26,02,15,12.40
2017,05,26,02,16,12.30
2017,05,26,02,17,12.20
2017,05,26,02,18,12.10
2017,05,26,02,19,12.00
2017,05,26,02,20,11.90
2017,05,26,02,21,11.80
2017,05,26,02,22,11.80
2017,05,26,02,23,11.70
2017,05,26,02,24,11.60
2017,05,26,02,25,11.60
2017,05,26,02,26,11.50
2017,05,26,02,27,11.40
2017,05,26,02,28,11.40
2017,05,26,02,29,11.30
2017,05,26,02,30,11.20
2017,05,26,02,31,11.10
2017,05,26,02,32,11.00
2017,05,26,02,33,10.90
2017,05,26,02,34,10.90
2017,05,26,02,35,10.80
2017,05,26,02,36,10.80
2017,05,26,02,37,10.70
2017,05,26,02,38,10.70
2017,05,26,02,39,10.60
2017,05,26,02,40,10.60
2017,05,26,02,41,10.60
2017,05,26,02,42,10.60
2017,05,26,02,43,10.60
2017,05,26,02,44,10.60
2017,05,26,02,45,10.60
2017,05,26,02,46,10.50
2017,05,26,02,47,10.40
2017,05,26,02,48,10.40
2017,05,26,02,49,10.40
2017,05,26,02,50,10.40
2017,05,26,02,51,10.40
2017,05,26,02,52,10.40
2017,05,26,02,53,10.40
2017,05,26,02,54,10.40
2017,05,26,02,55,10.40
2017,05,26,02,56,10.40
2017,05,26,02,57,10.40
2017,05,26,02,58,10.40
2017,05,26,02,59,10.40
2017,05,26,03,00,10.40
2017,05,26,03,01,10.40
2017,05,26,03,02,10.40
2017,05,26,03,03,10.40
2017,05,26,03,04,10.40
2017,05,26,03,05,10.40
2017,05,26,03,06,10.40
2017,05,26,03,07,10.40
2017,05,26,03,08,10.40
2017,05,26,03,09,10.40
2017,05,26,03,10,10.40
2017,05,26,03,11,10.40
2017,05,26,03,12,10.40
2017,05,26,03,13,10.40
2017,05,26,03,14,10.40
2017,05,26,03,15,10.40
2017,05,26,03,16,10.40
2017,05,26,03,17,10.40
2017,05,26,03,18,10.40
2017,05,26,03,19,10.40
2017,05,26,03,20,10.40
2017,05,26,03,21,10.40
2017,05,26,03,22,10.40
2017,05,26,03,23,10.40
2017,05,26,03,24,10.40
2017,05,26,03,25,10.40
2017,05,26,03,26,10.40
2017,05,26,03,27,10.40
2017,05,26,03,28,10.40
2017,05,26,03,29,10.40
2017,05,26,03,30,10.40
2017,05,26,03,31,10.40
2017,05,26,03,32,10.40
2017,05,26,03,33,10.40
2017,05,26,03,34,10.40
2017,05,26,03,35,10.40
2017,05,26,03,36,10.40
2017,05,26,03,37,10.40
2017,05,26,03,38,10.40
2017,05,26,03,39,10.40
2017,05,26,03,40,10.40
2017,05,26,03,41,10.40
2017,05,26,03,42,10.40
2017,05,26,03,43,10.40
2017,05,26,03,44,10.40
2017,05,26,03,45,10.40
2017,05,26,03,46,10.40
2017,05,26,03,47,10.40
2017,05,26,03,48,10.40
2017,05,26,03,49,10.40
2017,05,26,03,50,10.40
2017,05,26,03,51,10.40
2017,05,26,03,52,10.40
2017,05,26,03,53,10.40
2017,05,26,03,54,10.40
2017,05,26,03,55,10.40
2017,05,26,03,56,10.40
2017,05,26,03,57,10.40
2017,05,26,03,58,10.40
2017,05,26,03,59,10.40
2017,05,26,04,00,10.40
2017,05,26,04,01,10.40
2017,05,26,04,02,10.40
2017,05,26,04,03,10.40
2017,05,26,04,04,10.40
2017,05,26,04,05,10.50
2017,05,26,04,06,10.60
2017,05,26,04,07,10.60
2017,05,26,04,08,10.60
2017,05,26,04,09,10.60
2017,05,26,04,10,10.60
2017,05,26,04,11,10.70
2017,05,26,04,12,10.80
2017,05,26,04,13,10.80
2017,05,26,04,14,10.80
2017,05,26,04,15,10.90
2017,05,26,04,16,10.90
2017,05,26,04,17,10.90
2017,05,26,04,18,10.90
2017,05,26,04,19,10.90
2017,05,26,04,20,10.90
2017,05,26,04,21,11.00
2017,05,26,04,22,11.10
2017,05,26,04,23,11.10
2017,05,26,04,24,11.10
2017,05,26,04,25,11.20
2017,05,26,04,26,11.20
2017,05,26,04,27,11.30
2017,05,26,04,28,11.30
2017,05,26,04,29,11.40
2017,05,26,04,30,11.40
2017,05,26,04,31,11.40
2017,05,26,04,32,11.40
2017,05,26,04,33,11.50
2017,05,26,04,34,11.60
2017,05,26,04,35,11.60
2017,05,26,04,36,11.60
2017,05,26,04,37,11.60
2017,05,26,04,38,11.70
2017,05,26,04,39,11.70
2017,05,26,04,40,11.80
2017,05,26,04,41,11.80
2017,05,26,04,42,11.80
2017,05,26,04,43,11.80
2017,05,26,04,44,11.80
2017,05,26,04,45,11.80
2017,05,26,04,46,11.80
2017,05,26,04,47,11.80
2017,05,26,04,48,11.80
2017,05,26,04,49,11.80
2017,05,26,04,50,11.80
2017,05,26,04,51,11.80
2017,05,26,04,52,11.90
2017,05,26,04,53,11.90
2017,05,26,04,54,11.90
2017,05,26,04,55,11.90
2017,05,26,04,56,11.90
2017,05,26,04,57,11.90
2017,05,26,04,58,11.90
2017,05,26,04,59,11.90
2017,05,26,05,00,11.90
2017,05,26,05,01,11.90
2017,05,26,05,02,11.90
2017,05,26,05,03,11.90
2017,05,26,05,04,11.90
2017,05,26,05,05,11.90
2017,05,26,05,06,11.90
2017,05,26,05,07,11.90
2017,05,26,05,08,11.90
2017,05,26,05,09,11.90
2017,05,26,05,10,11.80
2017,05,26,05,11,11.80
2017,05,26,05,12,11.80
2017,05,26,05,13,11.80
2017,05,26,05,14,11.80
2017,05,26,05,15,11.80
2017,05,26,05,16,11.80
2017,05,26,05,17,11.80
2017,05,26,05,18,11.80
2017,05,26,05,19,11.80
2017,05,26,05,20,11.70
2017,05,26,05,21,11.70
2017,05,26,05,22,11.70
2017,05,26,05,23,11.70
2017,05,26,05,24,11.70
2017,05,26,05,25,11.60
2017,05,26,05,26,11.60
2017,05,26,05,27,11.60
2017,05,26,05,28,11.60
2017,05,26,05,29,11.60
2017,05,26,05,30,11.60
2017,05,26,05,31,11.60
2017,05,26,05,32,11.70
2017,05,26,05,33,11.60
2017,05,26,05,34,11.70
2017,05,26,05,35,11.70
2017,05,26,05,36,11.70
2017,05,26,05,37,11.70
2017,05,26,05,38,11.70
2017,05,26,05,39,11.70
2017,05,26,05,40,11.70
2017,05,26,05,41,11.70
2017,05,26,05,42,11.70
2017,05,26,05,43,11.80
2017,05,26,05,44,11.80
2017,05,26,05,45,11.80
2017,05,26,05,46,11.80
2017,05,26,05,47,11.80
2017,05,26,05,48,11.80
2017,05,26,05,49,11.90
2017,05,26,05,50,11.90
2017,05,26,05,51,12.00
2017,05,26,05,52,12.00
2017,05,26,05,53,12.00
2017,05,26,05,54,12.10
2017,05,26,05,55,12.10
2017,05,26,05,56,12.10
2017,05,26,05,57,12.20
2017,05,26,05,58,12.20
2017,05,26,05,59,12.20
2017,05,26,06,00,12.20
2017,05,26,06,01,12.20
2017,05,26,06,02,12.30
2017,05,26,06,03,12.30
2017,05,26,06,04,12.30
2017,05,26,06,05,12.30
2017,05,26,06,06,12.30
2017,05,26,06,07,12.30
2017,05,26,06,08,12.30
2017,05,26,06,09,12.30
2017,05,26,06,10,12.30
2017,05,26,06,11,12.30
2017,05,26,06,12,12.30
2017,05,26,06,13,12.30
2017,05,26,06,14,12.30
2017,05,26,06,15,12.30
2017,05,26,06,16,12.30
2017,05,26,06,17,12.40
2017,05,26,06,18,12.40
2017,05,26,06,19,12.50
2017,05,26,06,20,12.50
2017,05,26,06,21,12.60
2017,05,26,06,22,12.60
2017,05,26,06,23,12.70
2017,05,26,06,24,12.80
2017,05,26,06,25,12.80
2017,05,26,06,26,12.80
2017,05,26,06,27,12.90
2017,05,26,06,28,13.00
2017,05,26,06,29,13.00
2017,05,26,06,30,13.10
2017,05,26,06,31,13.10
2017,05,26,06,32,13.20
2017,05,26,06,33,13.20
2017,05,26,06,34,13.20
2017,05,26,06,35,13.30
2017,05,26,06,36,13.30
2017,05,26,06,37,13.30
2017,05,26,06,38,13.30
2017,05,26,06,39,13.30
2017,05,26,06,40,13.40
2017,05,26,06,41,13.40
2017,05,26,06,42,13.50
2017,05,26,06,43,13.50
2017,05,26,06,44,13.60
2017,05,26,06,45,13.60
2017,05,26,06,46,13.70
2017,05,26,06,47,13.70
2017,05,26,06,48,13.70
2017,05,26,06,49,13.80
2017,05,26,06,50,13.90
2017,05,26,06,51,13.90
2017,05,26,06,52,14.00
2017,05,26,06,53,14.00
2017,05,26,06,54,14.10
2017,05,26,06,55,14.20
2017,05,26,06,56,14.20
2017,05,26,06,57,14.20
2017,05,26,06,58,14.20
2017,05,26,06,59,14.20
2017,05,26,07,00,14.10
2017,05,26,07,01,14.00
2017,05,26,07,02,14.00
2017,05,26,07,03,14.00
2017,05,26,07,04,14.00
2017,05,26,07,05,13.90
2017,05,26,07,06,13.90
2017,05,26,07,07,13.90
2017,05,26,07,08,13.90
2017,05,26,07,09,13.90
2017,05,26,07,10,13.90
2017,05,26,07,11,13.90
2017,05,26,07,12,13.90
2017,05,26,07,13,14.00
2017,05,26,07,14,14.00
2017,05,26,07,15,14.00
2017,05,26,07,16,14.10
2017,05,26,07,17,14.20
2017,05,26,07,18,14.20
2017,05,26,07,19,14.20
2017,05,26,07,20,14.20
2017,05,26,07,21,14.30
2017,05,26,07,22,14.30
2017,05,26,07,23,14.40
2017,05,26,07,24,14.50
2017,05,26,07,25,14.60
2017,05,26,07,26,14.60
2017,05,26,07,27,14.70
2017,05,26,07,28,14.80
2017,05,26,07,29,14.90
2017,05,26,07,30,15.00
2017,05,26,07,31,15.00
2017,05,26,07,32,15.10
2017,05,26,07,33,15.20
2017,05,26,07,34,15.30
2017,05,26,07,35,15.30
2017,05,26,07,36,15.30
2017,05,26,07,37,15.30
2017,05,26,07,38,15.30
2017,05,26,07,39,15.40
2017,05,26,07,40,15.40
2017,05,26,07,41,15.40
2017,05,26,07,42,15.40
2017,05,26,07,43,15.50
2017,05,26,07,44,15.50
2017,05,26,07,45,15.50
2017,05,26,07,46,15.60
2017,05,26,07,47,15.60
2017,05,26,07,48,15.70
2017,05,26,07,49,15.70
2017,05,26,07,50,15.70
2017,05,26,07,51,15.80
2017,05,26,07,52,15.80
2017,05,26,07,53,15.80
2017,05,26,07,54,15.80
2017,05,26,07,55,15.80
2017,05,26,07,56,15.80
2017,05,26,07,57,15.80
2017,05,26,07,58,15.80
2017,05,26,07,59,15.80
2017,05,26,08,00,15.80
2017,05,26,08,01,15.90
2017,05,26,08,02,16.00
2017,05,26,08,03,16.10
2017,05,26,08,04,16.10
2017,05,26,08,05,16.20
2017,05,26,08,06,16.30
2017,05,26,08,07,16.30
2017,05,26,08,08,16.40
2017,05,26,08,09,16.40
2017,05,26,08,10,16.40
2017,05,26,08,11,16.40
2017,05,26,08,12,16.40
2017,05,26,08,13,16.40
2017,05,26,08,14,16.30
2017,05,26,08,15,16.20
2017,05,26,08,16,16.10
2017,05,26,08,17,16.10
2017,05,26,08,18,16.10
2017,05,26,08,19,16.10
2017,05,26,08,20,16.10
2017,05,26,08,21,16.00
2017,05,26,08,22,15.90
2017,05,26,08,23,15.80
2017,05,26,08,24,15.80
2017,05,26,08,25,15.80
2017,05,26,08,26,15.80
2017,05,26,08,27,15.80
2017,05,26,08,28,15.80
2017,05,26,08,29,15.80
2017,05,26,08,30,15.70
2017,05,26,08,31,15.70
2017,05,26,08,32,15.70
2017,05,26,08,33,15.70
2017,05,26,08,34,15.70
2017,05,26,08,35,15.60
2017,05,26,08,36,15.60
2017,05,26,08,37,15.60
2017,05,26,08,38,15.50
2017,05,26,08,39,15.50
2017,05,26,08,40,15.50
2017,05,26,08,41,15.50
2017,05,26,08,42,15.50
2017,05,26,08,43,15.60
2017,05,26,08,44,15.60
2017,05,26,08,45,15.60
2017,05,26,08,46,15.60
2017,05,26,08,47,15.50
2017,05,26,08,48,15.50
2017,05,26,08,49,15.40
2017,05,26,08,50,15.40
2017,05,26,08,51,15.40
2017,05,26,08,52,15.40
2017,05,26,08,53,15.50
2017,05,26,08,54,15.50
2017,05,26,08,55,15.40
2017,05,26,08,56,15.50
2017,05,26,08,57,15.60
2017,05,26,08,58,15.60
2017,05,26,08,59,15.60
2017,05,26,09,00,15.60
2017,05,26,09,01,15.60
2017,05,26,09,02,15.60
2017,05,26,09,03,15.50
2017,05,26,09,04,15.50
2017,05,26,09,05,15.50
2017,05,26,09,06,15.50
2017,05,26,09,07,15.60
2017,05,26,09,08,15.70
2017,05,26,09,09,15.70
2017,05,26,09,10,15.80
2017,05,26,09,11,15.80
2017,05,26,09,12,15.80
2017,05,26,09,13,15.80
2017,05,26,09,14,15.80
2017,05,26,09,15,15.80
2017,05,26,09,16,15.80
2017,05,26,09,17,15.80
2017,05,26,09,18,15.80
2017,05,26,09,19,15.80
2017,05,26,09,20,15.80
2017,05,26,09,21,15.80
2017,05,26,09,22,15.80
2017,05,26,09,23,15.80
2017,05,26,09,24,15.80
2017,05,26,09,25,15.90
2017,05,26,09,26,16.00
2017,05,26,09,27,16.10
2017,05,26,09,28,16.10
2017,05,26,09,29,16.10
2017,05,26,09,30,16.10
2017,05,26,09,31,16.10
2017,05,26,09,32,16.10
2017,05,26,09,33,16.20
2017,05,26,09,34,16.30
2017,05,26,09,35,16.40
2017,05,26,09,36,16.40
2017,05,26,09,37,16.30
2017,05,26,09,38,16.30
2017,05,26,09,39,16.30
2017,05,26,09,40,16.30
2017,05,26,09,41,16.30
2017,05,26,09,42,16.30
2017,05,26,09,43,16.20
2017,05,26,09,44,16.10
2017,05,26,09,45,15.90
2017,05,26,09,46,15.90
2017,05,26,09,47,15.80
2017,05,26,09,48,15.80
2017,05,26,09,49,15.80
2017,05,26,09,50,15.80
2017,05,26,09,51,15.80
2017,05,26,09,52,15.90
2017,05,26,09,53,15.90
2017,05,26,09,54,15.90
2017,05,26,09,55,16.00
2017,05,26,09,56,16.10
2017,05,26,09,57,16.10
2017,05,26,09,58,16.20
2017,05,26,09,59,16.30
2017,05,26,10,00,16.50
2017,05,26,10,01,16.60
2017,05,26,10,02,16.60
2017,05,26,10,03,16.50
2017,05,26,10,04,16.40
2017,05,26,10,05,16.40
2017,05,26,10,06,16.20
2017,05,26,10,07,16.10
2017,05,26,10,08,16.10
2017,05,26,10,09,16.10
2017,05,26,10,10,16.00
2017,05,26,10,11,15.90
2017,05,26,10,12,15.90
2017,05,26,10,13,15.90
2017,05,26,10,14,15.90
2017,05,26,10,15,15.90
2017,05,26,10,16,16.00
2017,05,26,10,17,16.10
2017,05,26,10,18,16.20
2017,05,26,10,19,16.30
2017,05,26,10,20,16.30
2017,05,26,10,21,16.30
2017,05,26,10,22,16.30
2017,05,26,10,23,16.30
2017,05,26,10,24,16.20
2017,05,26,10,25,16.30
2017,05,26,10,26,16.30
2017,05,26,10,27,16.30
2017,05,26,10,28,16.30
2017,05,26,10,29,16.40
2017,05,26,10,30,16.40
2017,05,26,10,31,16.40
2017,05,26,10,32,16.30
2017,05,26,10,33,16.20
2017,05,26,10,34,16.10
2017,05,26,10,35,16.10
2017,05,26,10,36,16.10
2017,05,26,10,37,16.20
2017,05,26,10,38,16.20
2017,05,26,10,39,16.30
2017,05,26,10,40,16.40
2017,05,26,10,41,16.30
2017,05,26,10,42,16.30
2017,05,26,10,43,16.40
2017,05,26,10,44,16.40
2017,05,26,10,45,16.40
2017,05,26,10,46,16.40
2017,05,26,10,47,16.40
2017,05,26,10,48,16.40
2017,05,26,10,49,16.40
2017,05,26,10,50,16.40
2017,05,26,10,51,16.50
2017,05,26,10,52,16.70
2017,05,26,10,53,16.90
2017,05,26,10,54,17.00
2017,05,26,10,55,17.10
2017,05,26,10,56,17.30
2017,05,26,10,57,17.30
2017,05,26,10,58,17.40
2017,05,26,10,59,17.50
2017,05,26,11,00,17.70
2017,05,26,11,01,17.80
2017,05,26,11,02,17.90
2017,05,26,11,03,18.10
2017,05,26,11,04,18.20
2017,05,26,11,05,18.20
2017,05,26,11,06,18.20
2017,05,26,11,07,18.00
2017,05,26,11,08,17.80
2017,05,26,11,09,17.70
2017,05,26,11,10,17.60
2017,05,26,11,11,17.50
2017,05,26,11,12,17.30
2017,05,26,11,13,17.30
2017,05,26,11,14,17.30
2017,05,26,11,15,17.40
2017,05,26,11,16,17.40
2017,05,26,11,17,17.40
2017,05,26,11,18,17.30
2017,05,26,11,19,17.30
2017,05,26,11,20,17.30
2017,05,26,11,21,17.20
2017,05,26,11,22,17.20
2017,05,26,11,23,17.30
2017,05,26,11,24,17.30
2017,05,26,11,25,17.30
2017,05,26,11,26,17.40
2017,05,26,11,27,17.40
2017,05,26,11,28,17.40
2017,05,26,11,29,17.50
2017,05,26,11,30,17.70
2017,05,26,11,31,17.90
2017,05,26,11,32,17.90
2017,05,26,11,33,17.90
2017,05,26,11,34,17.90
2017,05,26,11,35,17.90
2017,05,26,11,36,17.90
2017,05,26,11,37,17.80
2017,05,26,11,38,17.70
2017,05,26,11,39,17.70
2017,05,26,11,40,17.70
2017,05,26,11,41,17.80
2017,05,26,11,42,17.80
2017,05,26,11,43,17.90
2017,05,26,11,44,17.90
2017,05,26,11,45,17.90
2017,05,26,11,46,17.90
2017,05,26,11,47,18.10
2017,05,26,11,48,18.20
2017,05,26,11,49,18.30
2017,05,26,11,50,18.30
2017,05,26,11,51,18.40
2017,05,26,11,52,18.50
2017,05,26,11,53,18.70
2017,05,26,11,54,18.90
2017,05,26,11,55,19.00
2017,05,26,11,56,19.20
2017,05,26,11,57,19.40
2017,05,26,11,58,19.50
2017,05,26,11,59,19.50
2017,05,26,12,00,19.60
2017,05,26,12,01,19.60
2017,05,26,12,02,19.60
2017,05,26,12,03,19.70
2017,05,26,12,04,19.70
2017,05,26,12,05,19.60
2017,05,26,12,06,19.60
2017,05,26,12,07,19.60
2017,05,26,12,08,19.60
2017,05,26,12,09,19.60
2017,05,26,12,10,19.60
2017,05,26,12,11,19.60
2017,05,26,12,12,19.60
2017,05,26,12,13,19.50
2017,05,26,12,14,19.50
2017,05,26,12,15,19.50
2017,05,26,12,16,19.60
2017,05,26,12,17,19.60
2017,05,26,12,18,19.40
2017,05,26,12,19,19.30
2017,05,26,12,20,19.20
2017,05,26,12,21,19.20
2017,05,26,12,22,19.20
2017,05,26,12,23,19.30
2017,05,26,12,24,19.30
2017,05,26,12,25,19.50
2017,05,26,12,26,19.60
2017,05,26,12,27,19.70
2017,05,26,12,28,19.80
2017,05,26,12,29,19.90
2017,05,26,12,30,20.00
2017,05,26,12,31,20.10
2017,05,26,12,32,20.10
2017,05,26,12,33,20.20
2017,05,26,12,34,20.20
2017,05,26,12,35,20.20
2017,05,26,12,36,20.20
2017,05,26,12,37,20.40
2017,05,26,12,38,20.40
2017,05,26,12,39,20.40
2017,05,26,12,40,20.40
2017,05,26,12,41,20.40
2017,05,26,12,42,20.30
2017,05,26,12,43,20.20
2017,05,26,12,44,20.10
2017,05,26,12,45,20.10
2017,05,26,12,46,20.10
2017,05,26,12,47,20.20
2017,05,26,12,48,20.20
2017,05,26,12,49,20.00
2017,05,26,12,50,19.90
2017,05,26,12,51,20.10
2017,05,26,12,52,20.10
2017,05,26,12,53,20.00
2017,05,26,12,54,19.90
2017,05,26,12,55,19.80
2017,05,26,12,56,19.80
2017,05,26,12,57,19.80
2017,05,26,12,58,19.80
2017,05,26,12,59,19.70
2017,05,26,13,00,19.70
2017,05,26,13,01,19.70
2017,05,26,13,02,19.70
2017,05,26,13,03,19.70
2017,05,26,13,04,19.70
2017,05,26,13,05,19.70
2017,05,26,13,06,19.80
2017,05,26,13,07,19.90
2017,05,26,13,08,20.10
2017,05,26,13,09,20.20
2017,05,26,13,10,20.30
2017,05,26,13,11,20.20
2017,05,26,13,12,20.20
2017,05,26,13,13,20.10
2017,05,26,13,14,20.10
2017,05,26,13,15,20.00
2017,05,26,13,16,19.90
2017,05,26,13,17,19.90
2017,05,26,13,18,19.90
2017,05,26,13,19,19.90
2017,05,26,13,20,19.90
2017,05,26,13,21,19.90
2017,05,26,13,22,19.90
2017,05,26,13,23,19.80
2017,05,26,13,24,19.70
2017,05,26,13,25,19.70
2017,05,26,13,26,19.70
2017,05,26,13,27,19.70
2017,05,26,13,28,19.60
2017,05,26,13,29,19.70
2017,05,26,13,30,19.80
2017,05,26,13,31,19.90
2017,05,26,13,32,20.10
2017,05,26,13,33,20.20
2017,05,26,13,34,20.40
2017,05,26,13,35,20.50
2017,05,26,13,36,20.50
2017,05,26,13,37,20.60
2017,05,26,13,38,20.60
2017,05,26,13,39,20.60
2017,05,26,13,40,20.60
2017,05,26,13,41,20.60
2017,05,26,13,42,20.60
2017,05,26,13,43,20.60
2017,05,26,13,44,20.60
2017,05,26,13,45,20.50
2017,05,26,13,46,20.50
2017,05,26,13,47,20.60
2017,05,26,13,48,20.70
2017,05,26,13,49,20.80
2017,05,26,13,50,20.70
2017,05,26,13,51,20.60
2017,05,26,13,52,20.60
2017,05,26,13,53,20.50
2017,05,26,13,54,20.40
2017,05,26,13,55,20.20
2017,05,26,13,56,20.20
2017,05,26,13,57,20.20
2017,05,26,13,58,20.20
2017,05,26,13,59,20.20
2017,05,26,14,00,20.20
2017,05,26,14,01,20.30
2017,05,26,14,02,20.40
2017,05,26,14,03,20.30
2017,05,26,14,04,20.40
2017,05,26,14,05,20.40
2017,05,26,14,06,20.30
2017,05,26,14,07,20.30
2017,05,26,14,08,20.30
2017,05,26,14,09,20.20
2017,05,26,14,10,20.20
2017,05,26,14,11,20.20
2017,05,26,14,12,20.20
2017,05,26,14,13,20.30
2017,05,26,14,14,20.40
2017,05,26,14,15,20.50
2017,05,26,14,16,20.50
2017,05,26,14,17,20.50
2017,05,26,14,18,20.60
2017,05,26,14,19,20.70
2017,05,26,14,20,20.70
2017,05,26,14,21,20.70
2017,05,26,14,22,20.80
2017,05,26,14,23,20.90
2017,05,26,14,24,20.90
2017,05,26,14,25,21.00
2017,05,26,14,26,20.90
2017,05,26,14,27,20.80
2017,05,26,14,28,20.80
2017,05,26,14,29,20.90
2017,05,26,14,30,21.00
2017,05,26,14,31,21.00
2017,05,26,14,32,21.00
2017,05,26,14,33,21.00
2017,05,26,14,34,21.00
2017,05,26,14,35,21.10
2017,05,26,14,36,21.20
2017,05,26,14,37,21.30
2017,05,26,14,38,21.10
2017,05,26,14,39,21.10
2017,05,26,14,40,21.10
2017,05,26,14,41,21.10
2017,05,26,14,42,21.10
2017,05,26,14,43,21.10
2017,05,26,14,44,21.30
2017,05,26,14,45,21.40
2017,05,26,14,46,21.40
2017,05,26,14,47,21.60
2017,05,26,14,48,21.50
2017,05,26,14,49,21.40
2017,05,26,14,50,21.40
2017,05,26,14,51,21.40
2017,05,26,14,52,21.50
2017,05,26,14,53,21.60
2017,05,26,14,54,21.60
2017,05,26,14,55,21.60
2017,05,26,14,56,21.70
2017,05,26,14,57,21.70
2017,05,26,14,58,21.60
2017,05,26,14,59,21.70
2017,05,26,15,00,21.70
2017,05,26,15,01,21.70
2017,05,26,15,02,21.70
2017,05,26,15,03,21.70
2017,05,26,15,04,21.70
2017,05,26,15,05,21.60
2017,05,26,15,06,21.60
2017,05,26,15,07,21.60
2017,05,26,15,08,21.40
2017,05,26,15,09,21.20
2017,05,26,15,10,21.10
2017,05,26,15,11,21.10
2017,05,26,15,12,21.10
2017,05,26,15,13,21.10
2017,05,26,15,14,21.20
2017,05,26,15,15,21.30
2017,05,26,15,16,21.40
2017,05,26,15,17,21.50
2017,05,26,15,18,21.60
2017,05,26,15,19,21.70
2017,05,26,15,20,21.70
2017,05,26,15,21,21.70
2017,05,26,15,22,21.70
2017,05,26,15,23,21.70
2017,05,26,15,24,21.70
2017,05,26,15,25,21.70
2017,05,26,15,26,21.60
2017,05,26,15,27,21.60
2017,05,26,15,28,21.60
2017,05,26,15,29,21.60
2017,05,26,15,30,21.60
2017,05,26,15,31,21.60
2017,05,26,15,32,21.60
2017,05,26,15,33,21.70
2017,05,26,15,34,21.90
2017,05,26,15,35,22.00
2017,05,26,15,36,22.20
2017,05,26,15,37,22.30
2017,05,26,15,38,22.50
2017,05,26,15,39,22.50
2017,05,26,15,40,22.60
2017,05,26,15,41,22.60
2017,05,26,15,42,22.60
2017,05,26,15,43,22.50
2017,05,26,15,44,22.50
2017,05,26,15,45,22.40
2017,05,26,15,46,22.30
2017,05,26,15,47,22.30
2017,05,26,15,48,22.30
2017,05,26,15,49,22.30
2017,05,26,15,50,22.40
2017,05,26,15,51,22.40
2017,05,26,15,52,22.50
2017,05,26,15,53,22.60
2017,05,26,15,54,22.70
2017,05,26,15,55,22.80
2017,05,26,15,56,22.90
2017,05,26,15,57,22.90
2017,05,26,15,58,23.00
2017,05,26,15,59,22.90
2017,05,26,16,00,23.00
2017,05,26,16,01,23.10
2017,05,26,16,02,23.20
2017,05,26,16,03,23.10
2017,05,26,16,04,23.00
2017,05,26,16,05,22.90
2017,05,26,16,06,22.90
2017,05,26,16,07,22.90
2017,05,26,16,08,22.90
2017,05,26,16,09,22.90
2017,05,26,16,10,22.90
2017,05,26,16,11,23.00
2017,05,26,16,12,23.10
2017,05,26,16,13,23.10
2017,05,26,16,14,23.10
2017,05,26,16,15,23.00
2017,05,26,16,16,22.90
2017,05,26,16,17,23.10
2017,05,26,16,18,23.10
2017,05,26,16,19,23.20
2017,05,26,16,20,23.30
2017,05,26,16,21,23.30
2017,05,26,16,22,23.30
2017,05,26,16,23,23.40
2017,05,26,16,24,23.50
2017,05,26,16,25,23.70
2017,05,26,16,26,23.80
2017,05,26,16,27,23.90
2017,05,26,16,28,24.00
2017,05,26,16,29,24.10
2017,05,26,16,30,24.10
2017,05,26,16,31,24.30
2017,05,26,16,32,24.40
2017,05,26,16,33,24.50
2017,05,26,16,34,24.50
2017,05,26,16,35,24.60
2017,05,26,16,36,24.60
2017,05,26,16,37,24.50
2017,05,26,16,38,24.50
2017,05,26,16,39,24.40
2017,05,26,16,40,24.40
2017,05,26,16,41,24.30
2017,05,26,16,42,24.20
2017,05,26,16,43,24.10
2017,05,26,16,44,24.10
2017,05,26,16,45,24.10
2017,05,26,16,46,24.10
2017,05,26,16,47,24.10
2017,05,26,16,48,24.10
2017,05,26,16,49,24.10
2017,05,26,16,50,24.10
2017,05,26,16,51,24.10
2017,05,26,16,52,23.90
2017,05,26,16,53,23.90
2017,05,26,16,54,23.90
2017,05,26,16,55,23.80
2017,05,26,16,56,23.70
2017,05,26,16,57,23.60
2017,05,26,16,58,23.50
2017,05,26,16,59,23.40
2017,05,26,17,00,23.20
2017,05,26,17,01,23.10
2017,05,26,17,02,22.90
2017,05,26,17,03,22.80
2017,05,26,17,04,22.80
2017,05,26,17,05,22.80
2017,05,26,17,06,22.80
2017,05,26,17,07,22.90
2017,05,26,17,08,22.90
2017,05,26,17,09,22.90
2017,05,26,17,10,22.90
2017,05,26,17,11,22.90
2017,05,26,17,12,22.90
2017,05,26,17,13,22.90
2017,05,26,17,14,22.90
2017,05,26,17,15,22.90
2017,05,26,17,16,23.00
2017,05,26,17,17,23.10
2017,05,26,17,18,23.10
2017,05,26,17,19,23.00